Flag for South Africa Weather past 2 weeks in Cape Town, South Africa

Now
61 °F

Overcast.


Feels Like: 61 °F
Forecast: 61 / 75 °F
Wind: 3 mph from Northeast

Location: Cape Town International Airport

Current Time: Oct 23, 2014 at 8:04:57 AM

Latest Report: Oct 23, 2014 at 7:00 AM


Visibility: N/A

Pressure: 30.01 "Hg

Humidity: 83%

Dew point: 55 °F

Location of Cape TownLocation

Historic Weather in Cape Town — Graph

°F

Cape Town temperature yesterday

Maximum temperature yesterday: 73 °F (at 3:00 PM)
Minimum temperature yesterday: 55 °F (at 1:00 AM)
Average temperature yesterday: 62 °F

Past Weeks' High & Low Weather Summary

 TemperatureHumidityPressure
High82 °F (Oct 13, 3:00 PM)94% (Oct 12, 5:00 AM)30.27 "Hg (Oct 12, 5:00 AM)
Low45 °F (Oct 9, 6:00 AM)24% (Oct 18, 11:00 AM)29.59 "Hg (Oct 9, 10:00 AM)
Average64 °F67%30.05 "Hg
* Reported Oct 8 7:00 AM — Oct 23 7:00 AM, Cape Town, Weather by CustomWeather, © 2014

Note: Actual official high and low records may vary slightly from our data, if they occured in-between our weather recording intervals... More about our weather records

Advertising

Cape Town weather history for previous 24 hours

 ConditionsComfort  
Time TempWeatherWind HumidityBarometerVisibility
7:00 AM
Oct 23
61 °FOvercast.3 mph83%30.01 "HgN/A
6:00 AM61 °FOvercast.6 mph88%29.98 "Hg6 mi
5:00 AM61 °FLow clouds.5 mph88%29.98 "Hg4 mi
4:00 AM61 °FLow clouds.2 mph88%29.98 "Hg5 mi
3:00 AM61 °FLow clouds.3 mph88%30.01 "Hg6 mi
2:00 AM61 °FLow clouds.3 mph88%30.01 "Hg5 mi
1:00 AM59 °FPassing clouds.5 mph94%30.01 "Hg4 mi
12:00 AM59 °FPassing clouds.2 mph94%30.01 "Hg4 mi
11:00 PM
Oct 22
61 °FPassing clouds.6 mph88%30.01 "Hg4 mi
10:00 PM61 °FPassing clouds.5 mph88%30.01 "Hg5 mi
9:00 PM61 °FPassing clouds.6 mph88%29.98 "Hg5 mi
8:00 PM59 °FPassing clouds.7 mph94%29.98 "HgN/A
7:00 PM61 °FPassing clouds.8 mph88%29.95 "HgN/A
6:00 PM66 °FSunny.8 mph73%29.95 "Hg10 mi
5:00 PM70 °FSunny.8 mph64%29.95 "Hg10 mi
4:00 PM73 °FPassing clouds.6 mph61%29.95 "HgN/A
3:00 PM73 °FPassing clouds.5 mph57%29.98 "HgN/A
2:00 PM72 °FPassing clouds.5 mph61%29.98 "HgN/A
1:00 PM70 °FPassing clouds.8 mph64%30.01 "HgN/A
12:00 PM66 °FPassing clouds.10 mph68%30.01 "HgN/A
11:00 AM66 °FScattered clouds.14 mph68%30.04 "HgN/A
10:00 AM63 °FPartly sunny.9 mph77%30.04 "HgN/A
8:00 AM57 °FFog.9 mph94%30.01 "Hg1 mi
Weather by CustomWeather, © 2014

See weather overviewHow to use our weather pages